Meteo Giornale » Osservazioni meteo Svizzera » Buochs

ore: 04:50 - Osservazioni Meteo Buochs
Lat. 46° 58' N Lon. 8° 23' E Alt. 450 metri s.l.m.

molto_nuvoloso Europe/Zurich

10 °C

Molto Nuvoloso

Temp. 24 Ore

9 °C

18 °C

Nord

3.7 Km/h

Dew point 9 °C

Umidità 93 %

Visibilità  10 Km

Il sole sorge alle ore 07:50

Il sole tramonta alle ore 18:32

Data e Ora Cielo e Fenomeni T °C DP °C Um. % Pres. hPa Vis. km Vento km/h
Oggi h: 04:50 molto_nuvoloso Molto Nuvoloso 10 9 93 1008 10 N 3.7
Oggi h: 04:20 molto_nuvoloso Molto Nuvoloso 10 9 93 1008 10 N 3.7
Oggi h: 03:50 sereno Sereno 9 8 93 1008 10 O/SO 7.4
Oggi h: 03:20 poco_nuvoloso Poco Nuvoloso 10 9 93 1008 6 N 5.5
Oggi h: 02:50 nuvoloso Nuvoloso 10 10 100 1009 10 N 3.7
Oggi h: 02:20 sereno Sereno 10 9 93 1009 10 N 5.5
Oggi h: 01:50 sereno Sereno 10 9 93 1009 10 O/SO 7.4
Oggi h: 01:20 sereno Sereno 10 9 93 1009 10 N 5.5
Oggi h: 00:50 poco_nuvoloso Poco Nuvoloso 11 10 93 1010 10 SO 7.4
Oggi h: 00:20 molto_nuvoloso Molto Nuvoloso 11 10 93 1010 10 N 3.7
Ieri h: 23:20 sereno Sereno 12 10 87 1010 10 N 5.5
Ieri h: 22:50 nuvoloso Nuvoloso 12 10 87 1010 10 SO 7.4
Ieri h: 22:20 molto_nuvoloso Molto Nuvoloso 13 11 87 1010 10 N 5.5
Ieri h: 21:50 molto_nuvoloso Molto Nuvoloso 14 12 87 1010 10 SO 9.3
Ieri h: 21:20 coperto Coperto 14 12 87 1010 10 N 5.5
Ieri h: 20:50 molto_nuvoloso Molto Nuvoloso 14 12 87 1009 10 SO 7.4
Ieri h: 19:50 molto_nuvoloso Molto Nuvoloso 14 12 87 1009 10 S/SO 9.3
Ieri h: 19:20 molto_nuvoloso Molto Nuvoloso 15 12 82 1008 10 S/SO 9.3
Ieri h: 17:50 nuvoloso Nuvoloso 16 12 77 1009 9 N 3.7
Ieri h: 17:20 sereno Sereno 17 13 77 1009 10 N 5.5
Ieri h: 16:50 molto_nuvoloso Molto Nuvoloso 17 12 72 1009 10 N 3.7
Ieri h: 16:20 molto_nuvoloso Molto Nuvoloso 17 12 72 1009 10 N 5.5
Ieri h: 15:50 sereno Sereno 18 12 67 1009 10 S/SO 9.3
Ieri h: 15:20 sereno Sereno 17 11 67 1009 10 N 3.7
Ieri h: 14:50 sereno Sereno 17 12 72 1010 10 N 3.7
Ieri h: 14:20 sereno Sereno 16 12 77 1010 10 N 3.7
Ieri h: 13:50 sereno Sereno 16 11 72 1010 10 N 5.5
Ieri h: 13:20 sereno Sereno 16 12 77 1011 10 N 5.5
Ieri h: 12:50 nuvoloso Nuvoloso 16 11 72 1012 10 N 3.7
Ieri h: 12:20 molto_nuvoloso Molto Nuvoloso 15 12 82 1012 10 E/NE 7.4
Ieri h: 11:50 molto_nuvoloso Molto Nuvoloso 14 12 87 1013 10 N 5.5
Ieri h: 11:20 nuvoloso Nuvoloso 14 11 82 1013 10 N 3.7
Ieri h: 10:50 coperto_pioggia Pioggia Debole 13 12 93 1013 10 N 3.7
Ieri h: 10:20 coperto_pioggia Pioggia Debole 13 12 93 1013 10 N 5.5
Ieri h: 09:50 coperto_pioggia Pioggia Debole 13 11 87 1013 10 N 3.7
Ieri h: 09:20 coperto_pioggia Pioggia Debole 13 11 87 1013 10 N 3.7
Ieri h: 08:50 coperto_pioggia Pioggia Debole 14 11 82 1012 10 N/NO 11.1
Ieri h: 08:20 coperto_pioggia Pioggia Debole 12 11 93 1011 10 N 3.7
Ieri h: 07:50 coperto_pioggia Pioggia Debole 13 11 87 1011 10 N 5.5
Ieri h: 07:20 coperto Coperto 12 11 93 1011 10 S/SO 11.1
Ieri h: 06:20 molto_nuvoloso Molto Nuvoloso 12 11 93 1010 10 N 7.4
Ieri h: 05:50 coperto Coperto 12 11 93 1011 10 S/SO 7.4